{"data":{"norad_id":55780,"intl_designator":"2023-028AR","name":"STARLINK-5819","alt_names":[],"object_type":"PAYLOAD","status":"ACTIVE","operator":null,"country":"US","launch_date":"2023-03-03","launch_site_code":"AFWTR","launch_vehicle":null,"mission":null,"orbit_class":"UNKNOWN","rcs_meters":null,"size_class":null,"mass_kg":null,"dimensions":null,"purposes":["comms"],"wikipedia_slug":null,"has_3d_model":false,"image_url":null,"decayed_at":null,"tle_current":{"epoch":"2026-09-20T14:30:09.395424Z","epoch_age_seconds":94086,"freshness":"FRESH","line1":"1 55780U 23028AR  26263.60427541  .00000368  00000+0  38652-4 0  9992","line2":"2 55780  69.9983  92.8390 0002798 266.1723  93.9116 14.98319678195735","mean_motion":14.98319678,"eccentricity":0.0002798,"inclination_deg":69.9983,"raan_deg":92.839,"arg_perigee_deg":266.1723,"mean_anomaly_deg":93.9116,"bstar":3.8652e-5,"rev_number":19573,"period_min":96.107661211668,"perigee_km":570.14313815906,"apogee_km":574.03248396333,"semimajor_km":6950.2248110612,"source":"CELESTRAK","updated_at":"2026-09-21T09:00:33.319247Z"}}}